User: anonymous   Login
Location: Unspecified
(0.0000°N, 0.0000°E)
Time: 12:32:38
(UTC+00:00)
Language:

FALCON 9 R/B - Orbit

View from above orbital plane
View from above orbital plane
View from above satellite
View from above satellite

Ground track
Ground track

The orbit data is extracted from the following two-line orbital elements,

1 37253U 10066K   16150.69642502  .00003060  00000-0  30224-3 0  9993
2 37253  34.4920 201.7324 4293964  93.3145 315.1927  6.86973833134172
Epoch (UTC): 29 May 2016 16:42:51
Eccentricity: 0.4293964
inclination: 34.4920°
perigee height: 291 km
apogee height: 10330 km
right ascension of ascending node: 201.7324°
argument of perigee: 93.3145°
revolutions per day: 6.86973833
mean anomaly at epoch: 315.1927°
orbit number at epoch: 13417

The dashed part of the orbit path shows where the satellite is in the earth's shadow,  

DLR